www.pogodaiklimat.ru

Погода и климат >> Архив погоды >> Россия >> Оренбургская область >> Акбулак


ПОГОДА в Акбулаке

  • Прогноз погоды в Акбулаке
  • Монитор погоды в Акбулаке

АРХИВ ПОГОДЫ в Акбулаке

Время (UTC), дата Ветер
(напр.,м/с)
 
Видим.   Явления Облачность Т
(С)
Тd
(С)
f
(%)
Тe
(С)
Тes
(С)
Комфортность P
(гПа)
Po
(гПа)
Тmin
(С)
Tmax
(С)
R
(мм)
R24
(мм)
S
(см)
18 14.07 СВ 5
{11}
20 км 8/4 600 м
[Sc Ac As]
+23.6 +15.5 60 +27 +27 жарко 1000.4 983.9
21 14.07 СЗ 4
{11}
20 км 6/3 600 м
[Sc Ac As]
+21.5 +18.9 85 +26 +26 душно 998.1 981.5
00 15.07 СЗ 6-10
{19}
20 км в посл. час гроза {ливн. осадки} 8/8 500 м
[Cb calv]
+16.9 +14.1 84 +16 +16 997.1 980.3
03 15.07 ЮЗ 4
{12}
20 км 1/1 600 м
[Sc diur, vesp]
+18.0 +15.4 85 +18 +20 998.8 982.0 +16.6 1
06 15.07 З 5-12
{12}
20 км 9/9 660 м
[Sc]
+18.3 +14.9 81 +18 +19 1001.8 984.9
09 15.07 З 6-12
{15}
20 км 9/8 700 м
[Sc Ci fib]
+22.5 +12.3 52 +25 +26 комфорт 1004.4 987.8
12 15.07 СЗ 5
{15}
20 км 5/5 600 м
[Sc]
+24.6 +11.9 45 +26 +28 жарко 1006.1 989.5
15 15.07 СЗ 3
{13}
20 км ясно +23.7 +10.8 44 +25 +26 комфорт 1007.4 990.8 +24.9
18 15.07 СВ 2 20 км ясно +17.1 +10.9 67 +17 +17 1009.6 992.6
21 15.07 штиль 0 20 км ясно +13.5 +10.0 79 +13 +13 1010.7 993.4
00 16.07 штиль 0 20 км ясно +11.3 +9.5 89 +11 +11 1011.9 994.5
03 16.07 штиль 0 20 км ясно +17.4 +11.1 66 +17 +22 1012.9 995.8 +10.6
06 16.07 СЗ 1 20 км ясно +25.2 +10.9 41 +26 +42 жарко 1012.6 996.0
09 16.07 СЗ 3 20 км 3/0
[Ci fib]
+27.7 +9.9 33 +28 +41 жарко 1012.2 995.7
12 16.07 С 3 20 км 9/0
[Ci fib]
+28.9 +8.0 27 +28 +34 жарко 1011.7 995.3
15 16.07 С 2 20 км 3/0
[Ci fib]
+27.7 +7.4 28 +27 +28 жарко 1011.9 995.4 +29.0
18 16.07 С 1 20 км 9/0
[Ac As Ci fib]
+19.6 +7.4 45 +21 +21 комфорт 1012.6 995.6
21 16.07 СВ 1 20 км 8/0
[Ac As]
+20.8 +9.1 47 +23 +23 комфорт 1013.0 996.1
00 17.07 СВ 2 20 км 9/0
[Ac As]
+19.5 +10.2 55 +21 +21 комфорт 1013.1 996.1
03 17.07 ЮВ 2 20 км 9/0
[Ac As]
+21.5 +10.3 49 +23 +24 комфорт 1013.0 996.1 +19.2
06 17.07 ЮВ 2 20 км 3/3 600 м
[Cu hum]
+28.8 +8.9 29 +29 +38 жарко 1011.5 995.1
09 17.07 З 1 20 км 8/6 630 м
[Sc diur, vesp Ac trans]
+32.2 +7.5 22 +31 +36 жарко 1010.6 994.3
12 17.07 С 5
{10}
20 км 10/10 540 м
[Cb calv]
+28.5 +11.4 35 +29 +29 жарко 1010.5 994.0
15 17.07 СВ 6-12
{12}
20 км {ливн. осадки} 6/6 600 м
[Cb calv]
+24.5 +9.9 40 +25 +26 комфорт 1009.6 992.9 +33.0 0.0
18 17.07 СВ 5
{12}
20 км {ливн. осадки} 8/4 600 м
[Cb calv Ac As]
+21.9 +12.5 55 +24 +24 комфорт 1009.1 992.3
21 17.07 В 2
{10}
20 км 5/0
[Ac As]
+21.5 +11.9 54 +24 +24 комфорт 1008.0 991.3
00 18.07 В 2 20 км 6/3 600 м
[Sc Ac As]
+20.7 +10.6 52 +23 +23 комфорт 1006.9 990.2
03 18.07 ЮВ 4 20 км 4/3 600 м
[Sc Ac As]
+25.1 +6.6 31 +25 +26 комфорт 1006.6 990.1 +18.9
06 18.07 ЮВ 4 20 км 8/0
[Ac As]
+26.9 +9.4 33 +27 +31 жарко 1006.9 990.5
09 18.07 Ю 4
{11}
20 км 6/0
[Ac As]
+34.1 +11.1 25 +34 +40 очень
жарко
1005.5 989.4
12 18.07 Ю 5
{12}
20 км 4/0
[Ci fib]
+37.0 +10.5 20 +36 +40 очень
жарко
1004.1 988.3
15 18.07 н/о +9.5 1004.9 988.9 +37.4
18 18.07 С 1 20 км ясно +24.0 +12.9 50 +26 +26 жарко 1006.8 990.2
21 18.07 В 1 20 км 6/6 660 м
[Sc diur, vesp]
+21.0 +12.7 59 +25 +25 комфорт 1007.4 990.7
00 19.07 СВ 1 20 км 3/3 600 м
[Sc diur, vesp]
+18.9 +12.3 66 +21 +21 комфорт 1008.2 991.3
03 19.07 штиль 0 20 км 6/6 700 м
[Sc diur, vesp]
+22.3 +13.0 56 +25 +27 комфорт 1008.1 991.3 +18.4
06 19.07 В 2 20 км 9/5 600 м
[Sc Ac As]
+32.0 +10.6 27 +32 +35 жарко 1006.7 990.5
09 19.07 СВ 4 20 км 9/5 600 м
[Cb calv Ac As Ci fib]
+34.0 +8.7 21 +33 +36 жарко 1005.5 989.4
12 19.07 В 5
{10}
20 км 9/4 600 м
[Cb calv Ac As Ci fib]
+36.1 +8.3 18 +34 +36 очень
жарко
1003.7 987.7
15 19.07 СВ 4
{10}
20 км 8/3 600 м
[Cb calv Ac As Ci fib]
+32.5 +10.8 26 +32 +32 жарко 1003.8 987.7 +36.2
18 19.07 С 3
{11}
20 км 8/3 600 м
[Sc Ac As Ci fib]
+28.6 +11.5 35 +29 +29 жарко 1004.9 988.6
21 19.07 С 5-11
{11}
20 км ясно +24.2 +15.5 58 +27 +27 жарко 1004.3 987.8
00 20.07 С 5
{11}
20 км ясно +22.8 +15.5 63 +27 +27 душно 1004.8 988.2
03 20.07 С 5-11
{11}
20 км ясно +24.2 +15.8 59 +27 +29 жарко 1006.0 989.5 +22.2
06 20.07 С 5-12
{12}
20 км ясно +30.1 +16.0 43 +33 +40 душно 1006.4 990.2
09 20.07 С 6-13
{13}
20 км 8/0
[Ci fib]
+32.7 +15.1 35 +35 +40 душно 1006.7 990.6
12 20.07 СЗ 7-14
{16}
20 км 6/0
[Ci fib]
+32.0 +13.4 32 +33 +35 жарко 1007.8 991.7
15 20.07 СЗ 5-12
{15}
20 км 9/0
[Ac As Ci fib]
+30.1 +10.6 30 +30 +30 жарко 1008.9 992.6 +33.4
18 20.07 СЗ 2
{12}
20 км ясно +23.8 +10.8 44 +25 +25 комфорт 1010.9 994.2
21 20.07 СЗ 3 20 км ясно +19.2 +9.7 54 +20 +20 1011.3 994.4
00 21.07 СЗ 2 20 км ясно +17.4 +11.4 68 +18 +18 1012.0 994.9
03 21.07 СЗ 3 20 км ясно +21.5 +13.0 58 +24 +27 комфорт 1013.1 996.3 +16.9
06 21.07 СЗ 6
{11}
20 км ясно +27.7 +8.7 30 +28 +33 жарко 1013.5 997.0
09 21.07 СЗ 6-11
{12}
20 км ясно +29.5 +6.6 24 +28 +35 жарко 1013.6 997.2
12 21.07 З 5
{12}
20 км 3/3 600 м
[Cu hum]
+30.2 +6.7 23 +29 +32 жарко 1013.4 997.0
15 21.07 СЗ 4
{12}
20 км ясно +28.7 +6.8 25 +28 +28 жарко 1013.3 996.9 +30.6

 

Местоположение метеостанции Акбулак (Оренбургская область, Россия): широта 51.02 долгота 55.63 высота над уровнем моря 144 м.

В архиве по умолчанию представлена погода в Акбулаке за последнюю неделю. Архивные данные за месяц целиком и за предыдущие месяцы, начиная с января 2011 года, Вы можете получить, выбрав интересующий диапазон дат из раскрывающегося списка и нажав кнопку "Ввод!".


*Определитесь, кто Вы:
робот инопланетянин человек

Внимание! Время в таблицах - всемирное. Для получения местного времени необходимо прибавить поправку, которая равна 5 ч.

Смотрите также архив погоды в соседних городах и на ближайших метеорологических станциях:

Погода в Соль-Илецк (Оренбургская область, Россия) (45 км)
Погода в Мартуке (Актюбинская область, Казахстан) (70 км)
Погода в Беляевке (Оренбургская область, Россия) (71 км)
Погода в Оренбурге (Оренбургская область, Россия) (82 км)
Погода в Новоалексеевке (Костанайская область, Казахстан) (99 км)
Погода в Татарской Каргале (Оренбургская область, Россия) (103 км)
Погода в Чингирлау (Западно-Казахстанская область, Казахстан) (107 км)
Погода в Родниковке (Актюбинская область, Казахстан) (116 км)
Погода в Каралаатсае (Актюбинская область, Казахстан) (127 км)
Погода в Кувандыке (Оренбургская область, Россия) (131 км)

Пояснения к столбцам:

Ветер - указаны скорость ветра в м/с - средняя за 10 мин, порывы в срок и между сроками (в фигурных скобках) и направление, откуда дует ветер: С - северный, СВ - северо-восточный, В - восточный, ЮВ - юго-восточный, Ю - южный, ЮЗ - юго-западный, З - западный, СЗ - северо-западный.
Видимость - горизонтальная дальность видимости в метрах или километрах. При видимости от 1 до 10 км при отсутствии осадков обычно наблюдается дымка, при ухудшении видимости до 1 км и менее - туман. В сухую погоду видимость может ухудшаться дымом, пылью или мглою.
Явления - указаны атмосферные явления, наблюдавшиеся в срок или в последний час перед сроком; фигурными скобками обозначены явления, наблюдавшиеся между сроками (за 1-3 часа до срока); квадратными скобками обозначены град или гололедные отложения с указанием их диаметра в мм.
Облачность - указаны через наклонную черту общая и нижняя облачность в баллах и высота нижней границы облаков в метрах; квадратными скобками обозначены формы облаков: Ci - перистые, Cs - перисто-слоистые, Cc - перисто-кучевые, Ac - высококучевые, As - высокослоистые, Sc - слоисто-кучевые, Ns - слоисто-дождевые, Cu - кучевые, Cb - кучево-дождевые. Подробнее классификацию облаков см. в Атласе облаков (PDF).
T - Температура воздуха - температура, измеренная на высоте 2 м над землей.
Td - Температура точки росы - температура, при понижении до которой содержащийся в воздухе водяной пар достигнет насыщения.
f - Относительная влажность воздуха - влажноcть воздуха, измеренная на высоте 2 м над землей.
Te - Эффективная температура - температура, которую ощущает одетый по сезону человек в тени. Характеристика душности погоды. При расчете учитывается влияние влажности воздуха и скорости ветра на теплоощущения человека.
Tes - Эффективная температура на солнце - температура, которую ощущает человек, с поправкой на солнечный нагрев. Характеристика знойности погоды. Зависит от высоты солнца над горизонтом, облачности и скорости ветра. Ночью, в пасмурную погоду, а также при ветре 12 м/с и более поправка равна нулю.
P - Атмосферное давление - приведенное к уровню моря атмосферное давление.
Po - Атмосферное давление - измеренное на уровне метеостанции атмосферное давление.
Tmin - Минимальная температура - минимум температуры воздуха на высоте 2 м над землей.
Tmax - Максимальная температура - максимум температуры воздуха на высоте 2 м над землей.
R - Количество осадков - Количество выпавших осадков за период времени, мм. При наведении курсора мыши на число - период времени, за который выпало указанное количество осадков.
R24 - Количество осадков - Количество выпавших осадков за 24 часа, мм.
S - Снежный покров - Высота снежного покрова, см. При наведении курсора мыши на число - состояние снежного покрова и степень покрытия местности в баллах.